QPF
0.00 0.00 0.01 0.03 0.07 0.12 0.21 0.24 0.27 0.21 0.14 0.18 0.15 0.10 0.08 0.08 0.09 0.08 0.03 0.02 0.01 0.00 0.00 0.00 0.00 0.00 0.00 0.00 0.01 0.01 0.01 0.02 0.02 0.01 0.01 0.01 0.00 0.00 0.00 0.00 0.00 0.00 0.00 0.00 0.00 0.00 0.00 0.00 0.00
0.00 0.00 0.01 0.03 0.09 0.17 0.26 0.24 0.20 0.11 0.14 0.25 0.27 0.19 0.06 0.04 0.03 0.02 0.03 0.03 0.00 0.00 0.00 0.00 0.00 0.00 0.00 0.00 0.01 0.01 0.01 0.02 0.01 0.02 0.02 0.01 0.01 0.01 0.00 0.00 0.00 0.00 0.00 0.00 0.00 0.00 0.00 0.00 0.00
0.00 0.00 0.01 0.03 0.09 0.20 0.27 0.21 0.13 0.10 0.16 0.27 0.26 0.16 0.06 0.04 0.02 0.03 0.04 0.02 0.00 0.00 0.00 0.00 0.00 0.00 0.00 0.00 0.00 0.01 0.01 0.01 0.01 0.01 0.01 0.01 0.01 0.01 0.01 0.00 0.00 0.00 0.00 0.00 0.00 0.00 0.00 0.00 0.00
0.00 0.00 0.01 0.03 0.05 0.11 0.14 0.13 0.12 0.13 0.21 0.21 0.27 0.21 0.08 0.08 0.05 0.05 0.05 0.03 0.01 0.00 0.00 0.00 0.00 0.00 0.00 0.00 0.00 0.00 0.01 0.01 0.01 0.01 0.01 0.00 0.00 0.01 0.01 0.01 0.00 0.00 0.00 0.00 0.00 0.00 0.00 0.00 0.00
0.00 0.00 0.01 0.02 0.04 0.06 0.07 0.11 0.15 0.16 0.20 0.26 0.33 0.22 0.09 0.12 0.09 0.09 0.12 0.04 0.01 0.00 0.00 0.00 0.00 0.00 0.00 0.00 0.00 0.00 0.00 0.01 0.01 0.01 0.01 0.00 0.00 0.01 0.01 0.01 0.01 0.00 0.01 0.00 0.00 0.00 0.00 0.00 0.00
0.00 0.00 0.00 0.01 0.02 0.02 0.04 0.09 0.14 0.17 0.22 0.33 0.32 0.20 0.14 0.15 0.15 0.12 0.09 0.04 0.01 0.00 0.00 0.00 0.00 0.00 0.00 0.00 0.00 0.00 0.00 0.00 0.00 0.01 0.01 0.01 0.01 0.01 0.01 0.01 0.01 0.01 0.01 0.01 0.00 0.00 0.00 0.00 0.00
0.00 0.00 0.00 0.00 0.01 0.01 0.03 0.08 0.18 0.20 0.28 0.37 0.27 0.20 0.20 0.28 0.24 0.13 0.06 0.03 0.02 0.00 0.00 0.00 0.00 0.00 0.00 0.00 0.00 0.00 0.00 0.01 0.01 0.00 0.00 0.00 0.00 0.01 0.01 0.01 0.01 0.01 0.01 0.01 0.01 0.00 0.00 0.00 0.00
0.00 0.00 0.00 0.00 0.00 0.01 0.02 0.06 0.12 0.18 0.28 0.31 0.27 0.27 0.25 0.27 0.14 0.10 0.08 0.04 0.03 0.01 0.00 0.00 0.00 0.00 0.00 0.00 0.00 0.00 0.00 0.01 0.01 0.01 0.01 0.01 0.01 0.02 0.03 0.02 0.02 0.02 0.02 0.02 0.02 0.01 0.01 0.01 0.01
0.00 0.00 0.00 0.00 0.00 0.01 0.01 0.05 0.11 0.19 0.26 0.29 0.38 0.41 0.32 0.25 0.15 0.12 0.11 0.07 0.04 0.03 0.01 0.00 0.00 0.01 0.01 0.00 0.00 0.00 0.00 0.01 0.01 0.01 0.01 0.02 0.02 0.03 0.06 0.07 0.08 0.07 0.05 0.04 0.03 0.03 0.02 0.02 0.02
0.00 0.00 0.00 0.00 0.00 0.00 0.00 0.04 0.15 0.26 0.31 0.33 0.45 0.52 0.35 0.26 0.19 0.16 0.14 0.09 0.04 0.02 0.01 0.01 0.01 0.01 0.01 0.01 0.01 0.01 0.01 0.02 0.02 0.03 0.04 0.04 0.05 0.06 0.07 0.11 0.12 0.11 0.09 0.07 0.05 0.04 0.03 0.02 0.02
0.00 0.00 0.00 0.00 0.00 0.00 0.00 0.03 0.10 0.19 0.32 0.43 0.46 0.43 0.36 0.34 0.25 0.20 0.25 0.14 0.07 0.04 0.03 0.03 0.02 0.02 0.03 0.04 0.03 0.04 0.07 0.07 0.06 0.06 0.08 0.07 0.07 0.07 0.07 0.08 0.13 0.12 0.08 0.06 0.06 0.06 0.04 0.04 0.03
0.00 0.00 0.00 0.00 0.00 0.00 0.00 0.01 0.04 0.17 0.34 0.33 0.25 0.18 0.37 0.43 0.29 0.27 0.33 0.17 0.12 0.09 0.07 0.07 0.08 0.09 0.06 0.04 0.04 0.05 0.07 0.08 0.10 0.12 0.13 0.10 0.09 0.07 0.05 0.07 0.08 0.06 0.05 0.05 0.05 0.05 0.06 0.05 0.04
0.00 0.00 0.00 0.00 0.00 0.00 0.01 0.02 0.07 0.27 0.41 0.30 0.18 0.21 0.33 0.51 0.46 0.43 0.35 0.20 0.13 0.11 0.08 0.08 0.07 0.08 0.08 0.04 0.03 0.04 0.06 0.10 0.13 0.13 0.20 0.13 0.10 0.07 0.05 0.05 0.06 0.06 0.05 0.05 0.06 0.05 0.05 0.04 0.04
0.00 0.00 0.00 0.00 0.01 0.01 0.01 0.03 0.11 0.23 0.32 0.30 0.32 0.45 0.53 0.43 0.49 0.50 0.30 0.21 0.14 0.10 0.08 0.08 0.06 0.05 0.04 0.03 0.03 0.03 0.06 0.10 0.12 0.10 0.08 0.07 0.06 0.05 0.05 0.05 0.04 0.04 0.04 0.05 0.05 0.06 0.05 0.03 0.03
0.00 0.00 0.00 0.00 0.00 0.01 0.03 0.06 0.15 0.24 0.23 0.26 0.38 0.45 0.53 0.39 0.39 0.39 0.28 0.24 0.15 0.11 0.09 0.08 0.06 0.04 0.04 0.03 0.02 0.03 0.05 0.06 0.06 0.05 0.05 0.05 0.06 0.05 0.05 0.04 0.03 0.02 0.03 0.03 0.03 0.06 0.07 0.05 0.04
0.00 0.01 0.01 0.01 0.01 0.01 0.03 0.08 0.15 0.25 0.40 0.44 0.51 0.50 0.48 0.43 0.33 0.28 0.28 0.34 0.17 0.11 0.09 0.07 0.04 0.04 0.03 0.03 0.02 0.02 0.03 0.03 0.03 0.02 0.02 0.04 0.05 0.04 0.03 0.02 0.02 0.01 0.01 0.01 0.02 0.02 0.04 0.04 0.04
0.01 0.02 0.02 0.02 0.02 0.03 0.05 0.11 0.15 0.17 0.38 0.60 0.51 0.49 0.47 0.43 0.32 0.24 0.25 0.24 0.13 0.09 0.08 0.07 0.06 0.04 0.02 0.02 0.01 0.01 0.02 0.02 0.01 0.01 0.02 0.04 0.03 0.01 0.01 0.01 0.00 0.01 0.02 0.01 0.02 0.02 0.03 0.04 0.03
0.01 0.02 0.03 0.03 0.03 0.03 0.04 0.06 0.11 0.22 0.32 0.41 0.38 0.38 0.35 0.32 0.31 0.24 0.16 0.12 0.09 0.08 0.06 0.04 0.04 0.03 0.02 0.01 0.01 0.01 0.00 0.01 0.01 0.00 0.00 0.00 0.00 0.00 0.00 0.00 0.00 0.01 0.01 0.01 0.01 0.01 0.01 0.02 0.02
0.01 0.02 0.03 0.03 0.02 0.03 0.05 0.05 0.07 0.17 0.30 0.38 0.31 0.29 0.29 0.34 0.29 0.21 0.17 0.10 0.07 0.06 0.04 0.03 0.03 0.03 0.02 0.01 0.01 0.00 0.00 0.00 0.00 0.00 0.00 0.00 0.00 0.00 0.00 0.00 0.00 0.00 0.00 0.00 0.00 0.00 0.00 0.00 0.01
0.01 0.02 0.02 0.02 0.03 0.03 0.05 0.05 0.06 0.08 0.16 0.25 0.22 0.19 0.20 0.30 0.26 0.18 0.18 0.12 0.06 0.04 0.02 0.01 0.01 0.01 0.00 0.00 0.00 0.00 0.00 0.00 0.00 0.00 0.00 0.00 0.00 0.00 0.00 0.00 0.00 0.00 0.00 0.00 0.00 0.00 0.00 0.00 0.00
0.00 0.01 0.01 0.01 0.02 0.03 0.05 0.05 0.05 0.07 0.08 0.12 0.18 0.16 0.14 0.19 0.21 0.14 0.11 0.06 0.03 0.02 0.01 0.00 0.01 0.01 0.00 0.00 0.00 0.00 0.00 0.00 0.00 0.00 0.00 0.00 0.00 0.00 0.00 0.00 0.00 0.00 0.00 0.00 0.00 0.00 0.00 0.00 0.00
0.00 0.00 0.01 0.01 0.02 0.03 0.04 0.05 0.07 0.07 0.07 0.09 0.13 0.14 0.13 0.10 0.10 0.09 0.05 0.03 0.02 0.01 0.00 0.01 0.01 0.01 0.00 0.01 0.00 0.00 0.00 0.00 0.00 0.00 0.00 0.00 0.00 0.00 0.00 0.00 0.00 0.00 0.00 0.00 0.00 0.00 0.00 0.00 0.00
0.00 0.00 0.00 0.01 0.03 0.06 0.06 0.06 0.06 0.05 0.05 0.09 0.09 0.10 0.11 0.08 0.04 0.03 0.03 0.02 0.01 0.01 0.01 0.01 0.01 0.01 0.00 0.00 0.00 0.00 0.00 0.00 0.00 0.00 0.00 0.00 0.00 0.00 0.00 0.00 0.00 0.00 0.00 0.00 0.00 0.00 0.00 0.00 0.00
0.01 0.01 0.01 0.04 0.06 0.09 0.06 0.05 0.05 0.02 0.02 0.06 0.07 0.06 0.06 0.04 0.02 0.02 0.02 0.02 0.01 0.00 0.00 0.01 0.01 0.01 0.00 0.00 0.00 0.00 0.00 0.00 0.00 0.00 0.00 0.00 0.00 0.00 0.00 0.00 0.00 0.00 0.00 0.00 0.00 0.00 0.00 0.00 0.00
0.01 0.01 0.03 0.05 0.08 0.10 0.05 0.04 0.02 0.01 0.01 0.02 0.04 0.03 0.04 0.05 0.03 0.02 0.02 0.01 0.00 0.00 0.00 0.00 0.00 0.00 0.00 0.00 0.00 0.00 0.00 0.00 0.00 0.00 0.00 0.00 0.00 0.00 0.00 0.00 0.00 0.00 0.00 0.00 0.00 0.00 0.00 0.00 0.00
0.01 0.01 0.02 0.04 0.06 0.09 0.09 0.09 0.04 0.01 0.00 0.01 0.01 0.01 0.02 0.09 0.07 0.02 0.02 0.01 0.00 0.00 0.00 0.00 0.00 0.00 0.00 0.00 0.00 0.00 0.00 0.00 0.00 0.00 0.00 0.00 0.00 0.00 0.00 0.00 0.00 0.00 0.00 0.00 0.00 0.00 0.00 0.00 0.00
0.00 0.00 0.01 0.02 0.05 0.10 0.14 0.13 0.04 0.01 0.00 0.00 0.00 0.00 0.00 0.02 0.03 0.01 0.01 0.00 0.00 0.00 0.00 0.00 0.00 0.00 0.00 0.00 0.00 0.00 0.00 0.00 0.00 0.00 0.00 0.00 0.00 0.00 0.00 0.00 0.00 0.00 0.00 0.00 0.00 0.00 0.00 0.00 0.00
0.01 0.00 0.00 0.01 0.03 0.08 0.11 0.11 0.05 0.01 0.00 0.00 0.00 0.00 0.00 0.00 0.00 0.00 0.00 0.00 0.00 0.00 0.00 0.00 0.00 0.00 0.00 0.00 0.00 0.00 0.00 0.00 0.00 0.00 0.00 0.00 0.00 0.00 0.00 0.00 0.00 0.00 0.00 0.00 0.00 0.00 0.00 0.00 0.00
0.01 0.01 0.01 0.01 0.02 0.03 0.06 0.06 0.03 0.01 0.01 0.00 0.00 0.00 0.00 0.00 0.00 0.00 0.00 0.00 0.00 0.00 0.00 0.00 0.00 0.00 0.00 0.00 0.00 0.00 0.00 0.00 0.00 0.00 0.00 0.00 0.00 0.00 0.00 0.00 0.00 0.00 0.00 0.00 0.00 0.00 0.00 0.00 0.00
0.02 0.02 0.01 0.01 0.02 0.02 0.03 0.03 0.02 0.02 0.01 0.01 0.00 0.00 0.00 0.00 0.00 0.00 0.00 0.00 0.00 0.00 0.00 0.00 0.00 0.00 0.00 0.00 0.00 0.00 0.00 0.00 0.00 0.00 0.00 0.00 0.00 0.00 0.00 0.00 0.00 0.00 0.00 0.00 0.00 0.00 0.00 0.00 0.00
MSLP
1012.39 1013.39 1014.50 1015.59 1016.49 1017.09 1017.31 1017.13 1016.62 1015.85 1014.97 1014.13 1013.43 1012.94 1012.69 1012.64 1012.74 1012.88 1013.02 1013.09 1013.10 1013.06 1013.02 1013.03 1013.12 1013.31 1013.57 1013.87 1014.17 1014.43 1014.64 1014.80 1014.95 1015.11 1015.32 1015.57 1015.87 1016.18 1016.47 1016.69 1016.83 1016.88 1016.87 1016.84 1016.82 1016.83 1016.89 1016.99 1017.09
1012.99 1014.18 1015.36 1016.39 1017.12 1017.46 1017.38 1016.90 1016.13 1015.16 1014.16 1013.25 1012.53 1012.06 1011.82 1011.79 1011.91 1012.09 1012.28 1012.44 1012.57 1012.67 1012.78 1012.93 1013.14 1013.41 1013.71 1014.01 1014.29 1014.53 1014.72 1014.88 1015.04 1015.22 1015.45 1015.72 1016.02 1016.32 1016.57 1016.76 1016.86 1016.90 1016.89 1016.87 1016.87 1016.91 1016.99 1017.11 1017.24
1013.63 1014.92 1016.08 1016.97 1017.46 1017.52 1017.15 1016.43 1015.47 1014.40 1013.36 1012.47 1011.80 1011.37 1011.18 1011.16 1011.28 1011.47 1011.69 1011.90 1012.11 1012.33 1012.58 1012.86 1013.18 1013.53 1013.87 1014.19 1014.46 1014.68 1014.86 1015.02 1015.18 1015.37 1015.60 1015.86 1016.14 1016.39 1016.60 1016.75 1016.82 1016.84 1016.83 1016.83 1016.86 1016.94 1017.06 1017.20 1017.35
1014.23 1015.52 1016.57 1017.25 1017.48 1017.27 1016.66 1015.77 1014.73 1013.67 1012.71 1011.93 1011.37 1011.03 1010.88 1010.88 1010.98 1011.15 1011.35 1011.57 1011.84 1012.14 1012.49 1012.87 1013.28 1013.69 1014.07 1014.39 1014.66 1014.86 1015.03 1015.18 1015.34 1015.53 1015.75 1015.99 1016.23 1016.44 1016.60 1016.70 1016.75 1016.76 1016.77 1016.79 1016.86 1016.97 1017.12 1017.28 1017.44
1014.73 1015.91 1016.76 1017.19 1017.16 1016.72 1015.97 1015.02 1014.03 1013.09 1012.31 1011.72 1011.33 1011.11 1011.02 1011.02 1011.08 1011.18 1011.33 1011.53 1011.80 1012.14 1012.54 1012.99 1013.45 1013.89 1014.28 1014.59 1014.84 1015.03 1015.18 1015.33 1015.49 1015.67 1015.88 1016.10 1016.30 1016.47 1016.59 1016.66 1016.69 1016.70 1016.73 1016.79 1016.89 1017.04 1017.21 1017.38 1017.53
1015.06 1016.03 1016.63 1016.79 1016.54 1015.95 1015.15 1014.27 1013.44 1012.75 1012.23 1011.90 1011.71 1011.61 1011.57 1011.55 1011.55 1011.56 1011.63 1011.77 1012.01 1012.34 1012.75 1013.21 1013.68 1014.11 1014.47 1014.76 1014.97 1015.14 1015.28 1015.42 1015.59 1015.78 1015.99 1016.19 1016.37 1016.51 1016.59 1016.64 1016.67 1016.70 1016.75 1016.84 1016.97 1017.14 1017.32 1017.48 1017.62
1015.17 1015.88 1016.19 1016.11 1015.69 1015.05 1014.32 1013.62 1013.05 1012.67 1012.48 1012.41 1012.43 1012.45 1012.45 1012.39 1012.30 1012.21 1012.17 1012.23 1012.41 1012.70 1013.08 1013.51 1013.94 1014.32 1014.63 1014.86 1015.03 1015.17 1015.30 1015.44 1015.62 1015.83 1016.04 1016.24 1016.41 1016.53 1016.61 1016.65 1016.68 1016.73 1016.81 1016.93 1017.09 1017.26 1017.44 1017.60 1017.71
1015.04 1015.46 1015.52 1015.25 1014.75 1014.14 1013.57 1013.13 1012.89 1012.85 1012.97 1013.17 1013.35 1013.46 1013.45 1013.34 1013.15 1012.95 1012.82 1012.80 1012.91 1013.15 1013.48 1013.85 1014.21 1014.52 1014.75 1014.91 1015.02 1015.12 1015.24 1015.39 1015.59 1015.82 1016.05 1016.26 1016.43 1016.55 1016.62 1016.66 1016.70 1016.76 1016.87 1017.02 1017.19 1017.38 1017.55 1017.69 1017.78
1014.68 1014.85 1014.70 1014.32 1013.82 1013.34 1012.99 1012.85 1012.94 1013.23 1013.62 1014.01 1014.31 1014.44 1014.40 1014.20 1013.91 1013.62 1013.41 1013.33 1013.39 1013.59 1013.87 1014.18 1014.47 1014.69 1014.83 1014.91 1014.96 1015.03 1015.13 1015.30 1015.52 1015.77 1016.03 1016.25 1016.42 1016.54 1016.61 1016.65 1016.70 1016.78 1016.91 1017.07 1017.26 1017.45 1017.62 1017.75 1017.83
1014.13 1014.10 1013.83 1013.43 1013.01 1012.72 1012.63 1012.80 1013.19 1013.73 1014.31 1014.81 1015.13 1015.23 1015.11 1014.81 1014.44 1014.08 1013.82 1013.72 1013.77 1013.95 1014.20 1014.46 1014.68 1014.82 1014.88 1014.89 1014.89 1014.93 1015.03 1015.20 1015.44 1015.72 1015.99 1016.22 1016.40 1016.51 1016.58 1016.62 1016.68 1016.77 1016.90 1017.08 1017.28 1017.47 1017.64 1017.77 1017.84
1013.47 1013.33 1013.03 1012.68 1012.42 1012.35 1012.52 1012.95 1013.57 1014.28 1014.94 1015.44 1015.71 1015.71 1015.47 1015.08 1014.64 1014.25 1013.99 1013.90 1013.98 1014.17 1014.43 1014.67 1014.84 1014.92 1014.93 1014.89 1014.85 1014.87 1014.96 1015.14 1015.40 1015.69 1015.97 1016.20 1016.37 1016.48 1016.54 1016.58 1016.63 1016.72 1016.86 1017.04 1017.25 1017.45 1017.62 1017.76 1017.85
1012.80 1012.64 1012.38 1012.16 1012.09 1012.25 1012.65 1013.27 1014.03 1014.79 1015.43 1015.84 1015.98 1015.84 1015.48 1015.00 1014.51 1014.12 1013.90 1013.87 1014.01 1014.25 1014.53 1014.78 1014.94 1015.00 1014.97 1014.91 1014.86 1014.87 1014.96 1015.15 1015.41 1015.70 1015.98 1016.21 1016.37 1016.46 1016.51 1016.54 1016.59 1016.68 1016.82 1017.00 1017.21 1017.41 1017.59 1017.74 1017.84
1012.24 1012.11 1011.96 1011.91 1012.03 1012.39 1012.97 1013.71 1014.51 1015.23 1015.76 1016.02 1015.98 1015.68 1015.20 1014.65 1014.14 1013.79 1013.64 1013.69 1013.90 1014.21 1014.54 1014.81 1014.98 1015.03 1015.01 1014.95 1014.91 1014.93 1015.04 1015.24 1015.50 1015.78 1016.04 1016.25 1016.39 1016.47 1016.52 1016.55 1016.60 1016.69 1016.83 1017.00 1017.20 1017.40 1017.59 1017.74 1017.86
1011.88 1011.82 1011.80 1011.91 1012.22 1012.73 1013.42 1014.20 1014.95 1015.56 1015.92 1015.99 1015.78 1015.33 1014.75 1014.17 1013.69 1013.39 1013.32 1013.45 1013.74 1014.11 1014.48 1014.77 1014.96 1015.04 1015.04 1015.01 1015.00 1015.05 1015.18 1015.38 1015.63 1015.89 1016.13 1016.32 1016.45 1016.53 1016.57 1016.62 1016.68 1016.78 1016.92 1017.09 1017.28 1017.46 1017.63 1017.78 1017.90
1011.76 1011.78 1011.88 1012.13 1012.57 1013.19 1013.92 1014.67 1015.33 1015.78 1015.96 1015.85 1015.48 1014.94 1014.31 1013.73 1013.30 1013.08 1013.08 1013.29 1013.62 1014.02 1014.39 1014.70 1014.90 1015.00 1015.05 1015.07 1015.11 1015.20 1015.36 1015.56 1015.80 1016.03 1016.24 1016.41 1016.52 1016.61 1016.68 1016.75 1016.84 1016.97 1017.12 1017.28 1017.45 1017.61 1017.76 1017.88 1017.99
1011.87 1011.95 1012.15 1012.51 1013.03 1013.69 1014.41 1015.09 1015.62 1015.91 1015.93 1015.67 1015.21 1014.61 1014.00 1013.48 1013.12 1012.98 1013.04 1013.27 1013.61 1013.98 1014.33 1014.62 1014.82 1014.95 1015.04 1015.12 1015.22 1015.36 1015.55 1015.76 1015.97 1016.17 1016.35 1016.48 1016.60 1016.70 1016.80 1016.92 1017.06 1017.22 1017.39 1017.56 1017.71 1017.84 1017.95 1018.04 1018.10
1012.15 1012.28 1012.54 1012.96 1013.53 1014.19 1014.85 1015.42 1015.82 1015.96 1015.85 1015.51 1015.01 1014.44 1013.89 1013.46 1013.20 1013.13 1013.22 1013.45 1013.74 1014.05 1014.33 1014.56 1014.74 1014.88 1015.02 1015.16 1015.33 1015.52 1015.73 1015.94 1016.13 1016.29 1016.43 1016.54 1016.64 1016.76 1016.91 1017.09 1017.29 1017.50 1017.71 1017.88 1018.02 1018.12 1018.18 1018.22 1018.24
1012.50 1012.66 1012.97 1013.44 1014.01 1014.64 1015.23 1015.69 1015.95 1015.97 1015.77 1015.39 1014.91 1014.42 1013.99 1013.67 1013.51 1013.50 1013.61 1013.79 1014.00 1014.21 1014.38 1014.54 1014.68 1014.83 1015.00 1015.21 1015.44 1015.69 1015.93 1016.13 1016.28 1016.40 1016.48 1016.55 1016.65 1016.79 1016.98 1017.22 1017.49 1017.76 1018.00 1018.19 1018.32 1018.39 1018.42 1018.42 1018.40
1012.84 1013.05 1013.41 1013.91 1014.49 1015.07 1015.57 1015.91 1016.04 1015.96 1015.70 1015.32 1014.89 1014.50 1014.21 1014.03 1013.98 1014.02 1014.12 1014.24 1014.34 1014.42 1014.48 1014.54 1014.64 1014.79 1015.01 1015.28 1015.58 1015.88 1016.13 1016.32 1016.44 1016.49 1016.51 1016.54 1016.61 1016.76 1016.99 1017.28 1017.61 1017.93 1018.21 1018.43 1018.56 1018.61 1018.62 1018.59 1018.54
1013.09 1013.39 1013.83 1014.38 1014.97 1015.51 1015.92 1016.14 1016.15 1015.96 1015.64 1015.26 1014.90 1014.62 1014.45 1014.40 1014.44 1014.54 1014.63 1014.68 1014.68 1014.64 1014.58 1014.57 1014.62 1014.78 1015.04 1015.38 1015.74 1016.09 1016.36 1016.54 1016.61 1016.60 1016.55 1016.52 1016.56 1016.69 1016.93 1017.26 1017.63 1018.00 1018.32 1018.55 1018.69 1018.75 1018.74 1018.70 1018.65
1013.26 1013.69 1014.26 1014.89 1015.51 1016.02 1016.34 1016.43 1016.31 1016.00 1015.60 1015.19 1014.86 1014.66 1014.59 1014.65 1014.78 1014.91 1014.99 1014.99 1014.91 1014.78 1014.64 1014.57 1014.61 1014.79 1015.09 1015.50 1015.93 1016.32 1016.61 1016.78 1016.80 1016.73 1016.61 1016.52 1016.50 1016.61 1016.84 1017.18 1017.57 1017.96 1018.30 1018.55 1018.70 1018.76 1018.76 1018.74 1018.71
1013.36 1013.98 1014.71 1015.47 1016.14 1016.63 1016.86 1016.82 1016.54 1016.08 1015.55 1015.08 1014.72 1014.54 1014.54 1014.66 1014.86 1015.03 1015.12 1015.10 1014.98 1014.79 1014.61 1014.52 1014.56 1014.78 1015.14 1015.61 1016.10 1016.54 1016.86 1017.01 1017.01 1016.88 1016.71 1016.55 1016.48 1016.55 1016.75 1017.07 1017.45 1017.85 1018.19 1018.44 1018.60 1018.67 1018.68 1018.68 1018.69
1013.45 1014.30 1015.23 1016.12 1016.86 1017.33 1017.48 1017.29 1016.82 1016.17 1015.48 1014.88 1014.44 1014.23 1014.24 1014.40 1014.64 1014.85 1014.97 1014.96 1014.84 1014.65 1014.47 1014.39 1014.46 1014.72 1015.14 1015.66 1016.22 1016.70 1017.05 1017.21 1017.19 1017.04 1016.82 1016.62 1016.51 1016.52 1016.68 1016.97 1017.33 1017.70 1018.02 1018.26 1018.41 1018.48 1018.51 1018.54 1018.58
1013.59 1014.66 1015.78 1016.81 1017.61 1018.07 1018.11 1017.77 1017.10 1016.24 1015.35 1014.57 1014.01 1013.73 1013.70 1013.87 1014.13 1014.39 1014.56 1014.60 1014.52 1014.37 1014.23 1014.18 1014.29 1014.59 1015.06 1015.63 1016.23 1016.75 1017.13 1017.32 1017.31 1017.16 1016.93 1016.71 1016.56 1016.55 1016.67 1016.91 1017.22 1017.55 1017.83 1018.04 1018.17 1018.23 1018.26 1018.30 1018.37
1013.79 1015.04 1016.32 1017.46 1018.29 1018.71 1018.65 1018.14 1017.27 1016.20 1015.10 1014.14 1013.44 1013.05 1012.97 1013.13 1013.42 1013.73 1013.96 1014.08 1014.07 1013.99 1013.91 1013.91 1014.07 1014.40 1014.89 1015.49 1016.11 1016.66 1017.06 1017.28 1017.31 1017.19 1016.98 1016.78 1016.63 1016.60 1016.69 1016.89 1017.15 1017.42 1017.65 1017.82 1017.91 1017.95 1017.96 1017.99 1018.07
1014.00 1015.36 1016.73 1017.92 1018.76 1019.11 1018.95 1018.28 1017.23 1015.97 1014.68 1013.56 1012.73 1012.26 1012.13 1012.28 1012.60 1012.97 1013.28 1013.49 1013.58 1013.58 1013.57 1013.62 1013.81 1014.15 1014.64 1015.24 1015.85 1016.41 1016.83 1017.08 1017.16 1017.09 1016.95 1016.78 1016.67 1016.64 1016.72 1016.88 1017.09 1017.31 1017.49 1017.60 1017.65 1017.65 1017.63 1017.64 1017.70
1014.16 1015.54 1016.91 1018.08 1018.86 1019.13 1018.86 1018.07 1016.88 1015.48 1014.08 1012.85 1011.93 1011.40 1011.25 1011.41 1011.77 1012.21 1012.62 1012.93 1013.12 1013.22 1013.28 1013.37 1013.57 1013.90 1014.36 1014.91 1015.49 1016.02 1016.45 1016.73 1016.86 1016.86 1016.78 1016.69 1016.62 1016.62 1016.71 1016.85 1017.03 1017.20 1017.32 1017.39 1017.39 1017.35 1017.30 1017.27 1017.29
1014.17 1015.48 1016.76 1017.83 1018.50 1018.68 1018.30 1017.43 1016.18 1014.71 1013.26 1012.00 1011.07 1010.54 1010.40 1010.60 1011.03 1011.55 1012.06 1012.48 1012.77 1012.95 1013.08 1013.20 1013.39 1013.68 1014.08 1014.56 1015.07 1015.56 1015.97 1016.26 1016.43 1016.50 1016.50 1016.48 1016.48 1016.52 1016.62 1016.76 1016.91 1017.05 1017.14 1017.16 1017.13 1017.06 1016.97 1016.91 1016.89
1013.98 1015.12 1016.24 1017.14 1017.67 1017.73 1017.29 1016.38 1015.12 1013.69 1012.28 1011.08 1010.20 1009.73 1009.66 1009.92 1010.42 1011.03 1011.64 1012.15 1012.54 1012.80 1012.98 1013.13 1013.30 1013.54 1013.86 1014.25 1014.67 1015.09 1015.45 1015.73 1015.93 1016.04 1016.11 1016.15 1016.21 1016.30 1016.43 1016.57 1016.72 1016.83 1016.89 1016.90 1016.85 1016.77 1016.66 1016.58 1016.53
1013.61 1014.53 1015.42 1016.11 1016.48 1016.43 1015.93 1015.02 1013.83 1012.50 1011.22 1010.14 1009.39 1009.02 1009.04 1009.38 1009.96 1010.64 1011.32 1011.92 1012.39 1012.73 1012.96 1013.13 1013.29 1013.48 1013.72 1014.02 1014.34 1014.67 1014.97 1015.22 1015.41 1015.55 1015.66 1015.75 1015.86 1015.98 1016.13 1016.28 1016.42 1016.53 1016.59 1016.59 1016.55 1016.46 1016.37 1016.28 1016.21
Thickness
5819 5816 5813 5802 5780 5764 5761 5775 5787 5786 5789 5799 5808 5809 5805 5803 5794 5784 5807 5814 5810 5804 5799 5797 5796 5794 5793 5791 5789 5787 5786 5783 5781 5779 5777 5775 5773 5771 5770 5768 5767 5765 5764 5762 5761 5760 5759 5757 5756
5818 5814 5804 5787 5766 5750 5759 5781 5786 5790 5794 5800 5805 5808 5808 5802 5808 5805 5807 5809 5808 5803 5798 5796 5794 5793 5791 5790 5787 5786 5784 5781 5779 5777 5775 5773 5771 5770 5768 5766 5765 5763 5762 5760 5759 5758 5757 5756 5755
5817 5814 5791 5773 5762 5756 5765 5784 5791 5796 5800 5797 5794 5804 5805 5800 5806 5805 5806 5806 5804 5800 5796 5794 5792 5791 5790 5788 5786 5784 5782 5779 5777 5775 5773 5771 5769 5768 5766 5764 5763 5761 5759 5758 5757 5756 5755 5754 5753
5812 5797 5783 5765 5761 5777 5784 5793 5800 5796 5793 5794 5790 5790 5802 5811 5811 5807 5805 5803 5799 5796 5794 5792 5790 5789 5787 5785 5783 5781 5779 5777 5775 5773 5770 5768 5767 5765 5764 5762 5760 5759 5757 5756 5755 5754 5752 5751 5750
5806 5784 5766 5758 5769 5788 5800 5805 5803 5793 5783 5782 5786 5782 5789 5806 5812 5806 5802 5799 5796 5793 5792 5790 5788 5786 5784 5783 5781 5779 5777 5774 5772 5770 5768 5766 5764 5762 5761 5759 5758 5757 5755 5754 5753 5751 5750 5749 5748
5788 5776 5756 5753 5772 5792 5801 5804 5797 5786 5781 5781 5780 5777 5781 5799 5803 5798 5797 5795 5794 5791 5789 5788 5786 5784 5782 5780 5778 5776 5774 5772 5770 5767 5765 5763 5761 5759 5758 5757 5755 5754 5753 5751 5750 5748 5747 5747 5746
5779 5768 5759 5765 5772 5783 5794 5799 5791 5782 5778 5779 5785 5772 5777 5788 5795 5795 5793 5791 5790 5788 5787 5785 5783 5781 5779 5777 5775 5773 5771 5768 5766 5764 5761 5759 5757 5756 5754 5753 5752 5751 5750 5748 5747 5746 5744 5743 5743
5792 5772 5762 5764 5768 5774 5791 5794 5789 5782 5775 5784 5785 5772 5773 5786 5792 5790 5787 5786 5785 5783 5783 5782 5780 5779 5776 5774 5771 5769 5767 5764 5762 5760 5758 5756 5754 5752 5751 5750 5749 5748 5747 5745 5744 5743 5742 5740 5740
5799 5763 5751 5763 5770 5775 5789 5785 5783 5784 5779 5777 5781 5780 5782 5790 5790 5782 5777 5776 5777 5778 5778 5778 5777 5775 5773 5771 5769 5766 5764 5761 5758 5756 5755 5753 5750 5749 5747 5746 5745 5744 5743 5742 5741 5739 5738 5737 5736
5785 5756 5766 5783 5786 5781 5784 5782 5778 5773 5767 5766 5772 5778 5783 5783 5780 5777 5771 5769 5772 5773 5775 5776 5775 5773 5770 5769 5765 5763 5760 5757 5755 5753 5751 5749 5747 5745 5743 5742 5742 5741 5740 5738 5737 5736 5735 5734 5733
5785 5773 5785 5789 5793 5789 5779 5775 5778 5767 5755 5759 5763 5768 5773 5772 5771 5774 5771 5769 5771 5774 5775 5774 5773 5770 5768 5766 5762 5759 5757 5754 5751 5749 5747 5745 5743 5741 5739 5739 5738 5737 5735 5734 5733 5732 5731 5730 5729
5788 5789 5793 5790 5794 5787 5777 5771 5765 5761 5758 5766 5766 5768 5768 5766 5764 5766 5766 5768 5770 5770 5771 5771 5770 5767 5765 5762 5759 5756 5753 5750 5747 5745 5743 5740 5738 5736 5735 5734 5733 5732 5732 5731 5730 5729 5728 5727 5726
5790 5789 5794 5792 5789 5783 5776 5766 5760 5754 5759 5763 5762 5759 5759 5760 5760 5760 5764 5767 5769 5766 5767 5767 5767 5765 5762 5759 5756 5753 5750 5746 5744 5742 5739 5737 5735 5732 5731 5730 5729 5729 5728 5728 5727 5726 5725 5724 5722
5794 5794 5790 5788 5785 5780 5769 5759 5755 5747 5754 5755 5754 5752 5753 5753 5754 5755 5758 5761 5763 5764 5764 5763 5762 5760 5758 5755 5752 5749 5746 5743 5740 5738 5735 5734 5731 5729 5728 5726 5725 5725 5725 5724 5723 5723 5722 5720 5718
5798 5785 5781 5780 5779 5773 5769 5748 5746 5749 5749 5747 5747 5746 5746 5749 5752 5753 5755 5758 5761 5761 5761 5759 5758 5756 5753 5752 5749 5746 5743 5739 5736 5734 5732 5730 5727 5726 5724 5722 5721 5721 5721 5720 5719 5719 5718 5716 5715
5785 5769 5757 5769 5772 5771 5758 5733 5744 5749 5743 5737 5738 5739 5739 5744 5748 5750 5753 5756 5759 5759 5757 5757 5755 5751 5749 5747 5745 5742 5739 5736 5733 5730 5728 5726 5724 5722 5720 5718 5717 5717 5716 5715 5714 5713 5712 5710 5710
5759 5749 5750 5759 5770 5766 5753 5736 5743 5746 5740 5732 5731 5733 5735 5736 5740 5747 5752 5755 5756 5756 5755 5753 5751 5747 5745 5743 5741 5739 5736 5733 5730 5728 5725 5723 5721 5719 5717 5715 5713 5712 5711 5710 5709 5707 5706 5704 5704
5748 5748 5750 5752 5762 5760 5745 5738 5741 5741 5736 5730 5731 5732 5733 5734 5736 5744 5748 5752 5753 5753 5752 5748 5747 5744 5742 5740 5738 5735 5733 5730 5728 5725 5723 5720 5718 5716 5714 5712 5710 5708 5706 5704 5703 5702 5701 5700 5700
5772 5760 5752 5757 5766 5754 5742 5738 5739 5738 5733 5729 5730 5732 5732 5735 5739 5744 5746 5749 5749 5749 5747 5745 5742 5741 5739 5736 5733 5729 5726 5725 5723 5721 5719 5717 5715 5714 5712 5709 5706 5704 5701 5699 5698 5697 5695 5695 5695
5775 5759 5753 5758 5766 5752 5738 5735 5739 5738 5734 5733 5731 5732 5733 5735 5737 5742 5743 5745 5746 5744 5743 5742 5741 5739 5738 5736 5733 5729 5726 5723 5721 5718 5716 5714 5713 5711 5709 5706 5703 5700 5698 5695 5693 5691 5689 5688 5689
5772 5762 5758 5753 5755 5750 5737 5724 5729 5735 5738 5737 5736 5736 5736 5737 5737 5739 5741 5742 5743 5742 5742 5742 5740 5738 5736 5735 5731 5727 5723 5719 5716 5714 5712 5712 5711 5709 5707 5704 5701 5698 5695 5691 5689 5687 5684 5681 5682
5761 5776 5771 5760 5739 5724 5729 5705 5720 5728 5729 5733 5734 5734 5736 5739 5739 5740 5742 5742 5742 5742 5742 5741 5739 5737 5735 5733 5729 5724 5718 5713 5712 5711 5710 5710 5708 5707 5704 5702 5698 5695 5692 5689 5686 5684 5681 5678 5674
5771 5776 5766 5755 5736 5721 5722 5708 5714 5725 5722 5728 5734 5736 5739 5742 5742 5742 5743 5744 5744 5744 5743 5741 5738 5736 5734 5732 5728 5723 5718 5714 5712 5710 5708 5707 5706 5704 5702 5699 5696 5692 5689 5686 5683 5680 5677 5674 5671
5781 5764 5750 5736 5724 5708 5715 5708 5711 5721 5730 5734 5739 5741 5743 5745 5746 5745 5747 5746 5745 5745 5743 5741 5737 5734 5733 5730 5727 5723 5717 5714 5710 5707 5705 5703 5702 5700 5699 5696 5693 5689 5686 5682 5679 5677 5674 5671 5668
5775 5743 5717 5710 5699 5701 5719 5715 5719 5744 5752 5750 5747 5748 5750 5750 5748 5746 5746 5745 5745 5744 5743 5741 5736 5733 5732 5729 5725 5722 5718 5714 5710 5706 5703 5700 5698 5696 5695 5693 5689 5686 5683 5680 5676 5673 5670 5667 5664
5768 5749 5718 5704 5696 5701 5714 5714 5736 5762 5766 5765 5760 5757 5755 5753 5752 5751 5751 5751 5749 5748 5745 5741 5737 5733 5731 5728 5724 5721 5718 5713 5709 5706 5703 5700 5697 5695 5693 5690 5687 5683 5680 5677 5673 5669 5666 5663 5660
5766 5753 5749 5719 5707 5697 5707 5722 5744 5765 5764 5763 5761 5758 5756 5757 5756 5756 5756 5754 5752 5750 5747 5743 5739 5734 5731 5727 5723 5720 5716 5713 5709 5706 5703 5700 5697 5694 5691 5688 5684 5681 5677 5674 5670 5665 5662 5659 5656
5777 5764 5739 5719 5699 5693 5702 5711 5722 5747 5753 5759 5759 5760 5761 5761 5760 5760 5759 5758 5756 5753 5749 5745 5741 5735 5731 5727 5723 5720 5716 5712 5709 5705 5702 5698 5695 5692 5689 5685 5682 5678 5674 5670 5666 5662 5659 5655 5651
5764 5759 5744 5725 5716 5697 5689 5710 5753 5755 5759 5760 5763 5766 5766 5765 5765 5764 5762 5760 5757 5753 5749 5744 5739 5734 5730 5727 5723 5719 5715 5712 5708 5704 5701 5697 5694 5690 5686 5683 5679 5675 5671 5667 5662 5658 5654 5650 5646
5766 5759 5743 5723 5717 5712 5702 5720 5775 5771 5770 5769 5769 5772 5772 5771 5770 5767 5763 5759 5754 5750 5746 5742 5738 5734 5731 5727 5723 5719 5715 5711 5707 5703 5700 5696 5692 5689 5685 5680 5676 5672 5668 5664 5658 5654 5650 5645 5641